| time (UTC) | temp C | wind direction | speed KPH | gust KPH | rain 1hr cm | rain 24hr cm | rain mn cm | humidity % | barometer mb |
| 20260505231020 | 20 | 254 | 3.2 | 16.1 | 0.00 | 0.00 | 0.00 | 58 | 1009.1 |
| 20260505230019 | 20 | 223 | 3.2 | 8.0 | 0.00 | 0.00 | 0.00 | 57 | 1008.8 |
| 20260505225016 | 21 | 213 | 3.2 | 12.9 | 0.00 | 0.00 | 0.00 | 56 | 1008.6 |
| 20260505224017 | 21 | 224 | 3.2 | 9.7 | 0.00 | 0.00 | 0.00 | 54 | 1008.3 |
| 20260505223017 | 22 | 226 | 3.2 | 12.9 | 0.00 | 0.00 | 0.00 | 53 | 1008.4 |
| 20260505222021 | 22 | 216 | 3.2 | 12.9 | 0.00 | 0.00 | 0.00 | 52 | 1008.4 |
| 20260505221018 | 22 | 215 | 4.8 | 12.9 | 0.00 | 0.00 | 0.00 | 51 | 1008.4 |
| 20260505220017 | 22 | 216 | 1.6 | 8.0 | 0.00 | 0.00 | 0.00 | 52 | 1008.4 |
| 20260505215037 | 23 | 213 | 3.2 | 12.9 | 0.00 | 0.00 | 0.00 | 52 | 1008.4 |
| 20260505214018 | 23 | 199 | 3.2 | 11.3 | 0.00 | 0.00 | 0.00 | 50 | 1008.3 |
| 20260505213018 | 23 | 235 | 3.2 | 12.9 | 0.00 | 0.00 | 0.00 | 51 | 1008.1 |
| 20260505212017 | 23 | 219 | 3.2 | 11.3 | 0.00 | 0.00 | 0.00 | 50 | 1008.2 |
| 20260505211019 | 24 | 227 | 3.2 | 12.9 | 0.00 | 0.00 | 0.00 | 50 | 1008.2 |
| 20260505210018 | 24 | 212 | 3.2 | 9.7 | 0.00 | 0.00 | 0.00 | 50 | 1008.2 |
| 20260505205019 | 25 | 224 | 3.2 | 11.3 | 0.00 | 0.00 | 0.00 | 50 | 1008.2 |
| 20260505204019 | 25 | 259 | 3.2 | 11.3 | 0.00 | 0.00 | 0.00 | 49 | 1008.2 |
| 20260505203020 | 25 | 189 | 3.2 | 9.7 | 0.00 | 0.00 | 0.00 | 49 | 1008.0 |
| 20260505202019 | 25 | 208 | 3.2 | 16.1 | 0.00 | 0.00 | 0.00 | 49 | 1008.2 |
| 20260505201017 | 25 | 230 | 4.8 | 11.3 | 0.00 | 0.00 | 0.00 | 46 | 1008.2 |
| 20260505200017 | 26 | 198 | 4.8 | 16.1 | 0.00 | 0.00 | 0.00 | 47 | 1008.0 |
| 20260505195020 | 26 | 226 | 3.2 | 8.0 | 0.00 | 0.00 | 0.00 | 46 | 1008.1 |
| 20260505194019 | 26 | 236 | 4.8 | 16.1 | 0.00 | 0.00 | 0.00 | 46 | 1008.0 |
| 20260505193021 | 26 | 210 | 3.2 | 11.3 | 0.00 | 0.00 | 0.00 | 46 | 1008.0 |
| 20260505192037 | 27 | 206 | 4.8 | 14.5 | 0.00 | 0.00 | 0.00 | 45 | 1008.2 |
| 20260505191018 | 27 | 219 | 6.4 | 16.1 | 0.00 | 0.00 | 0.00 | 44 | 1008.1 |
| 20260505190018 | 27 | 228 | 3.2 | 11.3 | 0.00 | 0.00 | 0.00 | 44 | 1008.1 |
| 20260505185018 | 27 | 210 | 6.4 | 14.5 | 0.00 | 0.00 | 0.00 | 43 | 1008.2 |
| 20260505184019 | 27 | 208 | 4.8 | 12.9 | 0.00 | 0.00 | 0.00 | 43 | 1008.2 |
| 20260505183018 | 27 | 231 | 3.2 | 9.7 | 0.00 | 0.00 | 0.00 | 44 | 1008.2 |
| 20260505182018 | 27 | 216 | 3.2 | 12.9 | 0.00 | 0.00 | 0.00 | 44 | 1008.3 |
| 20260505181018 | 26 | 176 | 1.6 | 11.3 | 0.00 | 0.00 | 0.00 | 46 | 1008.6 |
| 20260505180038 | 26 | 215 | 3.2 | 11.3 | 0.00 | 0.00 | 0.00 | 46 | 1008.8 |
| 20260505175039 | 26 | 213 | 4.8 | 12.9 | 0.00 | 0.00 | 0.00 | 46 | 1009.0 |
| 20260505174019 | 26 | 170 | 4.8 | 12.9 | 0.00 | 0.00 | 0.00 | 46 | 1009.1 |
| 20260505173016 | 26 | 219 | 3.2 | 8.0 | 0.00 | 0.00 | 0.00 | 47 | 1009.1 |
| 20260505172020 | 25 | 227 | 4.8 | 12.9 | 0.00 | 0.00 | 0.00 | 45 | 1009.2 |
| 20260505171020 | 25 | 229 | 4.8 | 14.5 | 0.00 | 0.00 | 0.00 | 45 | 1009.3 |
| 20260505170020 | 26 | 230 | 4.8 | 11.3 | 0.00 | 0.00 | 0.00 | 46 | 1009.4 |
| 20260505165017 | 25 | 229 | 4.8 | 14.5 | 0.00 | 0.00 | 0.00 | 45 | 1009.4 |
| 20260505164018 | 25 | 212 | 4.8 | 14.5 | 0.00 | 0.00 | 0.00 | 46 | 1009.5 |
| 20260505163018 | 25 | 267 | 4.8 | 14.5 | 0.00 | 0.00 | 0.00 | 45 | 1009.7 |
| 20260505162018 | 25 | 241 | 3.2 | 9.7 | 0.00 | 0.00 | 0.00 | 47 | 1009.8 |
| 20260505161058 | 25 | 233 | 3.2 | 9.7 | 0.00 | 0.00 | 0.00 | 47 | 1009.9 |
| 20260505153027 | 21 | 265 | 1.6 | 4.8 | 0.00 | 0.00 | 0.00 | 53 | 1010.4 |
| 20260505152027 | 21 | 354 | 1.6 | 4.8 | 0.00 | 0.00 | 0.00 | 57 | 1010.4 |
| 20260505151028 | 20 | 253 | 1.6 | 6.4 | 0.00 | 0.00 | 0.00 | 59 | 1010.6 |
| 20260505125021 | 16 | 309 | 3.2 | 11.3 | 0.00 | 0.00 | 0.00 | 68 | 1011.0 |
| 20260505124041 | 16 | 319 | 4.8 | 11.3 | 0.00 | 0.00 | 0.00 | 69 | 1011.1 |
| 20260505123041 | 16 | 327 | 3.2 | 9.7 | 0.00 | 0.00 | 0.00 | 70 | 1011.2 |
| 20260505122031 | 15 | 248 | 3.2 | 8.0 | 0.00 | 0.00 | 0.00 | 72 | 1011.1 |
| 20260505121030 | 15 | 284 | 1.6 | 4.8 | 0.00 | 0.00 | 0.00 | 74 | 1010.7 |
| 20260505120031 | 14 | 263 | 1.6 | 4.8 | 0.00 | 0.00 | 0.00 | 74 | 1010.9 |
| 20260505115022 | 14 | 325 | 3.2 | 9.7 | 0.00 | 0.00 | 0.00 | 76 | 1010.8 |
| 20260505114030 | 13 | 282 | 1.6 | 3.2 | 0.00 | 0.00 | 0.00 | 78 | 1010.7 |
| 20260505113031 | 13 | 298 | 1.6 | 4.8 | 0.00 | 0.00 | 0.00 | 80 | 1010.6 |
| 20260505112031 | 12 | 339 | 1.6 | 3.2 | 0.00 | 0.00 | 0.00 | 83 | 1010.6 |
| 20260505111030 | 12 | 8 | 1.6 | 3.2 | 0.00 | 0.00 | 0.00 | 84 | 1010.5 |
| 20260505102018 | 8 | 7 | 1.6 | 3.2 | 0.00 | 0.00 | 0.00 | 91 | 1010.3 |
| 20260505101017 | 8 | 8 | 3.2 | 4.8 | 0.00 | 0.00 | 0.00 | 91 | 1010.3 |
| 20260505100017 | 8 | 15 | 3.2 | 4.8 | 0.00 | 0.00 | 0.00 | 91 | 1010.1 |
| 20260505095018 | 8 | 5 | 3.2 | 4.8 | 0.00 | 0.00 | 0.00 | 91 | 1010.1 |
| 20260505094017 | 8 | 9 | 3.2 | 4.8 | 0.00 | 0.00 | 0.00 | 91 | 1010.2 |
| 20260505093018 | 8 | 16 | 3.2 | 6.4 | 0.00 | 0.00 | 0.00 | 90 | 1010.3 |
| 20260505092018 | 8 | 9 | 3.2 | 6.4 | 0.00 | 0.00 | 0.00 | 89 | 1010.3 |
| 20260505091019 | 8 | 15 | 3.2 | 4.8 | 0.00 | 0.00 | 0.00 | 89 | 1010.4 |
| 20260505090039 | 8 | 2 | 3.2 | 4.8 | 0.00 | 0.00 | 0.00 | 89 | 1010.3 |
| 20260505085019 | 8 | 12 | 1.6 | 4.8 | 0.00 | 0.00 | 0.00 | 89 | 1010.4 |
| 20260505084019 | 9 | 343 | 1.6 | 3.2 | 0.00 | 0.00 | 0.00 | 88 | 1010.4 |
| 20260505083039 | 9 | 321 | 1.6 | 3.2 | 0.00 | 0.00 | 0.00 | 88 | 1010.5 |
| 20260505082020 | 9 | 360 | 0.0 | 3.2 | 0.00 | 0.00 | 0.00 | 87 | 1010.6 |
| 20260505081019 | 9 | 283 | 1.6 | 3.2 | 0.00 | 0.00 | 0.00 | 87 | 1010.7 |
| 20260505080019 | 9 | 311 | 1.6 | 3.2 | 0.00 | 0.00 | 0.00 | 86 | 1010.8 |
| 20260505075020 | 10 | 304 | 1.6 | 3.2 | 0.00 | 0.00 | 0.00 | 86 | 1010.7 |
| 20260505074020 | 10 | 305 | 1.6 | 3.2 | 0.00 | 0.00 | 0.00 | 86 | 1010.7 |
| 20260505073020 | 10 | 285 | 1.6 | 3.2 | 0.00 | 0.00 | 0.00 | 85 | 1010.7 |
| 20260505072020 | 10 | 287 | 1.6 | 3.2 | 0.00 | 0.00 | 0.00 | 84 | 1010.7 |
| 20260505071021 | 10 | 323 | 1.6 | 3.2 | 0.00 | 0.00 | 0.00 | 83 | 1010.9 |
| 20260505070020 | 10 | 332 | 1.6 | 4.8 | 0.00 | 0.00 | 0.00 | 82 | 1010.9 |
| 20260505065020 | 10 | 263 | 1.6 | 4.8 | 0.00 | 0.00 | 0.00 | 82 | 1010.9 |
| 20260505064021 | 10 | 284 | 1.6 | 4.8 | 0.00 | 0.00 | 0.00 | 81 | 1010.9 |
| 20260505063041 | 10 | 310 | 1.6 | 6.4 | 0.00 | 0.00 | 0.00 | 81 | 1011.0 |
| 20260505062021 | 10 | 311 | 1.6 | 3.2 | 0.00 | 0.00 | 0.00 | 81 | 1011.1 |
| 20260505061022 | 10 | 252 | 1.6 | 3.2 | 0.00 | 0.00 | 0.00 | 80 | 1011.1 |
| 20260505060022 | 10 | 289 | 1.6 | 4.8 | 0.00 | 0.00 | 0.00 | 80 | 1011.1 |
| 20260505055022 | 10 | 282 | 0.0 | 3.2 | 0.00 | 0.00 | 0.00 | 79 | 1011.0 |
| 20260505054022 | 11 | 319 | 1.6 | 4.8 | 0.00 | 0.00 | 0.00 | 79 | 1011.1 |
| 20260505053021 | 11 | 325 | 1.6 | 3.2 | 0.00 | 0.00 | 0.00 | 78 | 1011.2 |
| 20260505052043 | 11 | 322 | 1.6 | 4.8 | 0.00 | 0.00 | 0.00 | 78 | 1011.1 |
| 20260505051023 | 11 | 308 | 1.6 | 3.2 | 0.00 | 0.00 | 0.00 | 77 | 1011.2 |
| 20260505041018 | 11 | 336 | 1.6 | 4.8 | 0.00 | 0.00 | 0.00 | 75 | 1011.3 |
| 20260505040018 | 11 | 329 | 1.6 | 3.2 | 0.00 | 0.00 | 0.00 | 74 | 1011.3 |
| 20260505035019 | 11 | 281 | 1.6 | 6.4 | 0.00 | 0.00 | 0.00 | 74 | 1011.3 |
| 20260505034019 | 12 | 261 | 3.2 | 6.4 | 0.00 | 0.00 | 0.00 | 73 | 1011.2 |
| 20260505033018 | 12 | 283 | 3.2 | 9.7 | 0.00 | 0.00 | 0.00 | 73 | 1011.2 |
| 20260505032019 | 12 | 261 | 1.6 | 6.4 | 0.00 | 0.00 | 0.00 | 72 | 1011.1 |
| 20260505031018 | 12 | 328 | 1.6 | 6.4 | 0.00 | 0.00 | 0.00 | 72 | 1011.1 |
| 20260505030019 | 12 | 287 | 3.2 | 6.4 | 0.00 | 0.00 | 0.00 | 71 | 1011.1 |
| 20260505025039 | 12 | 267 | 1.6 | 8.0 | 0.00 | 0.00 | 0.00 | 71 | 1011.1 |
| 20260505024019 | 12 | 260 | 3.2 | 6.4 | 0.00 | 0.00 | 0.00 | 71 | 1011.1 |
| 20260505023017 | 12 | 213 | 3.2 | 8.0 | 0.00 | 0.00 | 0.00 | 70 | 1011.2 |
| 20260505022017 | 12 | 258 | 1.6 | 6.4 | 0.00 | 0.00 | 0.00 | 69 | 1011.2 |
| 20260505021017 | 12 | 215 | 3.2 | 6.4 | 0.00 | 0.00 | 0.00 | 69 | 1011.3 |
| 20260505020020 | 12 | 244 | 3.2 | 8.0 | 0.00 | 0.00 | 0.00 | 69 | 1011.2 |
| 20260505015018 | 12 | 216 | 3.2 | 8.0 | 0.00 | 0.00 | 0.00 | 69 | 1011.2 |
| 20260505014020 | 12 | 250 | 1.6 | 4.8 | 0.00 | 0.00 | 0.00 | 67 | 1011.1 |
| 20260505013017 | 12 | 245 | 3.2 | 8.0 | 0.00 | 0.00 | 0.00 | 67 | 1011.1 |
| 20260505012038 | 13 | 227 | 3.2 | 8.0 | 0.00 | 0.00 | 0.00 | 66 | 1011.0 |
| 20260505011018 | 13 | 234 | 3.2 | 6.4 | 0.00 | 0.00 | 0.00 | 65 | 1010.8 |
| 20260505010018 | 13 | 242 | 1.6 | 6.4 | 0.00 | 0.00 | 0.00 | 64 | 1010.6 |
| 20260505005019 | 13 | 224 | 3.2 | 6.4 | 0.00 | 0.00 | 0.00 | 62 | 1010.4 |
| 20260505004018 | 13 | 227 | 4.8 | 12.9 | 0.00 | 0.00 | 0.00 | 61 | 1010.2 |
| 20260505003019 | 13 | 210 | 3.2 | 9.7 | 0.00 | 0.00 | 0.00 | 61 | 1010.0 |
| 20260505002019 | 14 | 221 | 3.2 | 6.4 | 0.00 | 0.00 | 0.00 | 60 | 1009.8 |
| 20260505001019 | 14 | 237 | 3.2 | 6.4 | 0.00 | 0.00 | 0.00 | 58 | 1009.6 |
| 20260505000019 | 15 | 219 | 3.2 | 8.0 | 0.00 | 0.00 | 0.00 | 56 | 1009.5 |
| 20260504235016 | 15 | 240 | 3.2 | 11.3 | 0.00 | 0.00 | 0.00 | 55 | 1009.4 |
| 20260504234017 | 15 | 269 | 3.2 | 8.0 | 0.00 | 0.00 | 0.00 | 54 | 1009.3 |
| 20260504233019 | 16 | 212 | 3.2 | 9.7 | 0.00 | 0.00 | 0.00 | 52 | 1009.2 |
| 20260504232020 | 16 | 212 | 4.8 | 8.0 | 0.00 | 0.00 | 0.00 | 51 | 1009.1 |